Home > Weather > Changsha > Past weeks

Flag for China Weather for the Past 2 Weeks in Changsha, Hunan, China

Now
52 °F

Light rain. Fog.


Feels Like: 49 °F
Forecast: 38 / 45 °F
Wind: 8 mph from North

Location: Changsha

Current Time: Feb 13, 2016 at 8:55:39 AM

Latest Report: Feb 13, 2016 at 8:00 AM


Visibility: 2 mi

Pressure: 29.95 "Hg

Humidity: 94%

Dew point: 50 °F

Location of ChangshaLocation

Historic Weather in Changsha — Graph

°F

Changsha Temperature Yesterday

Maximum temperature yesterday: 82 °F (at 1:00 PM)
Minimum temperature yesterday: 54 °F (at 5:00 AM)
Average temperature yesterday: 65 °F

High & Low Weather Summary for the Past Weeks

 TemperatureHumidityPressure
High82 °F (Feb 12, 1:00 PM)100% (Jan 31, 10:00 PM)30.63 "Hg (Jan 31, 10:00 PM)
Low28 °F (Feb 7, 3:00 AM)15% (Feb 8, 4:00 PM)29.56 "Hg (Feb 12, 4:00 PM)
Average46 °F72%30.24 "Hg
* Reported Jan 29 7:00 AM — Feb 13 7:00 AM, Changsha, Weather by CustomWeather, © 2016

Note: Actual official high and low records may vary slightly from our data, if they occured in-between our weather recording intervals... More about our weather records

Advertising

Changsha Weather History for the Previous 24 Hours

 ConditionsComfort  
Time TempWeatherWind HumidityBarometerVisibility
7:00 AM
Sat, Feb 13
52 °FLight rain. Fog.6 mph88%29.92 "Hg2 mi
6:00 AM52 °FLight rain. Fog.10 mph88%29.89 "Hg2 mi
5:00 AM52 °FFog.13 mph88%29.89 "Hg2 mi
4:00 AM52 °FFog.13 mph94%29.86 "Hg2 mi
3:00 AM54 °FFog.13 mph94%29.83 "Hg1 mi
2:00 AM54 °FFog.13 mph94%29.83 "Hg1 mi
1:00 AM55 °FFog.13 mph88%29.80 "Hg1 mi
12:00 AM55 °FSprinkles. Fog.8 mph94%29.77 "Hg1 mi
11:00 PM
Fri, Feb 12
55 °FRain showers. Fog.17 mph94%29.77 "Hg1 mi
10:00 PM57 °FLight rain. Fog.15 mph94%29.74 "Hg1 mi
9:00 PM61 °FSprinkles. Fog.8 mph94%29.68 "Hg2 mi
8:00 PM61 °FThunderstorms. Fog.8 mph88%29.68 "Hg2 mi
7:00 PM63 °FThunderstorms. Fog.13 mph77%29.59 "Hg3 mi
6:00 PM77 °FScattered clouds.8 mph44%29.56 "HgN/A
5:00 PM81 °FPassing clouds.13 mph39%29.56 "HgN/A
4:00 PM82 °FPartly sunny.17 mph35%29.56 "HgN/A
3:00 PM81 °FScattered clouds.17 mph37%29.59 "HgN/A
2:00 PM81 °FScattered clouds.17 mph37%29.62 "HgN/A
1:00 PM82 °FPassing clouds.20 mph37%29.65 "HgN/A
12:00 PM79 °FSunny.17 mph42%29.71 "Hg10 mi
11:00 AM75 °FSunny.17 mph50%29.74 "Hg10 mi
10:00 AM68 °FHaze.3 mph69%29.77 "Hg3 mi
9:00 AM59 °FFog.1 mph88%29.77 "Hg1 mi
8:00 AM55 °FFog.1 mph94%29.77 "Hg1 mi
Weather by CustomWeather, © 2016

See weather overviewHow to use our weather pages